RH
5 6 6 5 6 6 7 9 10 15 16 21 23 24 22 19 27 27 27 24 45 74 82 100 96 78 100 86 90 81 76 72 37 29 31 37 42 43 45 45 41 44 44 41 26 20 17 13 10 9 8 10 11 13
6 6 6 6 7 7 9 12 13 12 17 19 21 21 20 16 21 26 26 26 38 90 86 100 93 92 100 95 97 100 83 77 55 32 30 33 40 44 45 47 45 43 44 44 43 35 26 22 14 12 10 12 13 14
6 6 6 6 6 7 11 12 13 15 17 21 21 23 21 13 16 23 24 26 37 84 91 100 95 95 100 92 100 100 96 88 79 36 32 32 36 42 42 45 46 46 42 42 38 39 40 31 24 19 14 14 15 17
6 6 5 6 6 8 11 14 15 17 20 25 21 19 17 12 17 24 26 26 35 62 89 100 94 100 100 99 100 100 89 91 95 60 36 36 33 37 38 43 47 49 50 47 44 41 37 38 41 32 29 24 20 21
6 6 5 6 6 8 9 11 13 20 24 20 20 16 14 12 20 26 25 25 30 61 97 100 99 100 100 99 100 100 99 98 98 92 58 41 37 37 38 44 46 49 52 54 53 51 51 46 36 36 46 40 33 36
6 5 6 6 7 8 9 12 12 10 14 15 12 15 13 11 18 25 24 25 29 56 95 100 100 100 100 100 100 100 100 100 88 100 93 71 46 43 42 46 42 46 52 55 59 60 59 57 56 53 39 38 48 53
6 6 6 7 6 9 12 15 13 13 12 13 14 15 13 16 17 23 26 29 35 65 100 100 100 100 100 100 95 100 99 96 92 96 96 94 92 71 63 60 56 54 53 54 57 60 60 63 62 61 57 54 52 42
5 7 6 7 9 11 12 14 14 13 11 14 15 19 19 20 21 26 27 28 40 72 100 100 97 100 100 100 100 95 98 96 98 97 92 94 100 85 67 100 79 83 80 78 73 70 67 65 68 70 69 68 67 63
6 6 6 6 12 13 12 10 14 14 13 12 15 17 17 19 25 28 27 27 38 71 89 100 100 100 100 100 100 84 89 100 100 100 90 90 100 89 75 100 76 94 96 82 90 94 89 86 81 79 78 74 69 66
7 6 7 6 11 15 15 12 12 13 15 16 16 17 21 23 24 26 28 28 36 66 91 100 100 88 95 100 100 94 80 84 100 100 96 97 100 87 85 98 85 89 86 91 94 97 94 87 80 77 76 79 79 75
8 7 8 8 11 16 17 14 13 15 11 17 13 14 15 18 20 26 26 28 38 64 96 100 100 94 86 99 100 100 80 78 88 100 93 100 100 82 96 94 82 83 82 79 79 81 80 79 77 76 73 76 73 68
8 9 9 10 13 16 15 13 13 12 11 17 16 16 16 16 18 23 24 31 49 82 100 100 100 96 98 100 100 100 77 65 65 86 99 100 100 80 78 96 92 96 94 90 83 79 77 69 63 65 69 70 68 67
9 10 10 11 14 16 14 15 14 13 15 23 21 16 17 19 21 24 24 30 47 80 100 100 100 100 93 90 97 100 100 92 80 78 97 100 100 89 78 82 82 86 88 86 78 69 64 63 63 59 59 61 60 62
10 11 11 12 13 16 16 15 15 15 17 20 18 17 18 18 21 24 25 32 47 70 91 98 100 100 85 89 90 85 89 97 85 89 86 88 91 99 94 85 88 86 79 74 76 80 76 69 65 61 61 57 55 58
11 13 13 13 13 13 14 14 14 15 17 18 17 16 17 20 23 24 27 34 39 47 69 83 90 96 95 84 84 82 78 93 100 100 91 81 84 91 95 94 90 88 84 76 70 65 66 67 67 66 64 64 63 63
14 14 15 14 15 14 14 14 14 14 16 15 15 16 19 21 21 23 25 30 33 39 50 70 81 83 85 82 77 73 77 91 95 97 98 99 99 96 94 91 86 82 76 73 70 67 64 60 62 65 66 68 72 73
16 16 15 15 16 15 15 15 15 16 16 16 16 18 19 21 21 23 25 26 28 34 41 55 74 83 80 76 76 72 77 80 82 87 92 99 100 99 99 97 94 90 88 81 76 75 76 74 71 71 78 85 79 76
18 18 18 17 16 15 14 14 15 16 16 17 18 19 21 21 22 22 23 25 25 28 35 44 59 72 79 79 80 79 76 72 77 85 90 100 100 100 100 100 99 96 94 89 79 76 76 75 79 86 91 90 89 91
19 19 19 19 18 16 14 14 15 16 16 17 18 20 20 20 20 21 21 22 23 25 28 34 42 55 62 76 89 93 87 77 73 77 83 90 100 100 100 99 98 94 89 85 82 81 84 86 89 90 91 90 93 97
19 20 20 19 18 18 17 15 14 13 14 14 16 18 18 18 18 20 20 20 20 21 22 24 28 35 46 58 72 82 83 78 74 73 76 74 78 84 93 99 100 99 98 94 91 90 91 92 90 92 97 98 100 100
19 21 20 19 18 18 17 16 14 13 12 13 14 15 17 18 17 18 20 19 18 19 19 20 22 26 32 41 52 62 68 73 78 79 77 77 73 64 65 70 78 90 95 98 100 100 98 97 98 95 93 91 92 93
18 19 19 20 20 18 17 15 14 14 13 13 13 14 15 16 16 16 16 17 16 16 16 17 19 22 25 28 32 38 46 52 58 64 68 73 70 64 62 61 60 59 61 66 68 69 69 68 69 72 75 75 73 73
17 18 17 18 18 17 17 17 16 14 14 14 14 15 14 15 16 16 16 16 15 15 15 16 18 19 21 22 25 28 30 32 34 37 44 54 60 61 64 65 64 64 64 61 60 60 60 64 73 76 70 64 60 60
15 16 16 16 17 17 16 16 16 15 14 14 14 13 14 16 16 17 18 16 16 17 17 16 15 15 16 17 18 18 19 20 21 24 27 30 34 36 36 37 37 37 36 32 32 40 50 54 54 49 42 36 31 28
13 13 12 12 14 16 16 16 16 15 14 14 14 13 13 14 14 15 16 15 16 16 17 17 17 16 16 15 16 16 18 20 23 26 27 30 30 28 27 28 28 27 27 29 29 29 28 28 25 24 23 23 23 24
11 11 12 12 13 14 15 16 16 16 16 16 15 15 15 15 14 15 15 14 14 15 15 16 16 16 16 16 16 16 16 16 17 18 18 18 19 20 21 21 22 24 24 24 24 23 21 20 20 19 19 18 18 18
10 11 11 12 13 13 15 15 15 15 16 17 16 16 16 16 16 16 14 15 15 16 15 15 15 15 15 16 15 15 15 16 16 16 16 16 17 18 18 18 18 17 17 17 16 16 16 16 16 16 16 16 16 15
9 10 11 12 12 13 13 13 14 15 15 14 15 15 16 16 16 16 16 16 16 16 16 16 16 16 16 16 15 15 14 14 15 15 15 14 14 14 15 15 15 15 15 15 14 14 13 13 12 12 12 12 12 12
9 8 8 9 12 13 14 14 14 14 13 12 12 13 13 13 13 14 13 13 14 13 13 13 13 13 13 13 12 12 12 12 12 12 12 12 12 12 12 12 12 11 11 11 11 11 11 11 11 10 11 11 11 11
8 9 9 9 8 8 9 11 12 12 13 13 14 14 13 14 14 14 14 14 13 13 13 12 12 12 12 12 12 11 11 10 10 10 10 10 10 10 10 10 9 9 9 9 9 9 10 10 10 11 11 12 12 12
6 7 8 9 9 9 9 9 9 10 12 13 13 13 13 13 12 13 13 13 13 13 13 13 13 13 12 12 11 10 10 10 10 10 10 10 10 9 9 9 9 9 9 9 10 10 11 11 11 11 11 10 9 8
5 6 6 8 9 10 10 10 9 9 9 10 10 11 11 11 11 10 10 10 10 10 10 11 11 10 10 9 9 9 9 9 10 10 10 9 9 9 9 9 9 9 9 9 9 8 8 8 8 8 8 7 7 7
5 5 5 5 6 7 8 8 9 8 8 8 8 8 8 9 10 10 10 10 10 9 9 9 9 9 9 9 9 9 9 9 8 9 9 9 9 9 9 9 9 9 8 8 8 7 7 7 7 7 7 7 6 6
Wind_Speed
41 41 40 40 43 52 58 66 81 92 97 97 95 92 91 69 79 78 76 68 72 74 68 65 59 50 45 39 33 31 29 26 21 18 15 13 15 20 26 32 37 42 48 53 46 37 30 21 12 6 11 20 25 32
40 41 42 42 44 50 56 69 83 91 96 100 100 96 87 77 73 77 75 67 72 77 69 67 61 54 46 41 33 32 29 28 25 20 18 14 13 15 19 24 29 34 39 44 50 48 39 30 20 13 8 13 20 27
39 41 41 42 47 51 58 69 81 91 94 96 99 96 90 78 71 73 76 71 72 77 73 68 63 57 51 45 37 35 30 29 28 24 21 18 14 13 14 18 22 27 30 35 38 44 47 42 35 27 16 9 15 20
38 41 42 44 47 53 63 71 82 91 97 104 103 98 90 66 69 74 72 73 75 76 73 72 66 59 55 49 42 39 35 31 29 28 24 21 18 15 12 14 17 20 23 27 30 34 36 41 43 40 35 25 14 12
39 41 43 45 48 56 64 75 85 96 102 103 102 96 84 63 67 73 72 70 78 79 72 72 68 63 57 51 45 42 36 34 33 30 27 24 22 19 15 12 13 15 17 19 23 26 29 32 32 36 39 37 33 24
40 43 44 48 51 57 64 72 81 83 94 97 88 88 83 73 69 75 75 67 73 81 80 76 70 67 59 53 49 44 38 36 35 31 31 26 27 23 18 18 15 14 13 16 17 19 21 23 25 26 26 27 28 30
40 44 48 48 50 56 66 73 75 84 84 88 91 90 80 67 69 69 71 75 81 84 81 78 74 69 62 57 54 48 42 38 35 34 31 29 29 27 22 22 19 17 16 15 16 16 16 17 17 18 18 19 19 17
42 47 52 51 51 58 66 70 74 81 84 87 88 83 66 61 68 70 76 81 85 86 86 81 75 71 67 63 59 54 47 41 38 36 34 30 28 28 25 24 23 21 19 18 17 17 16 16 16 16 15 15 15 14
42 48 53 57 55 57 63 68 77 84 84 86 86 87 85 70 75 77 82 84 85 87 84 83 80 75 70 66 63 58 50 45 40 39 37 33 33 32 25 25 24 19 20 20 18 19 19 19 19 19 19 18 17 15
41 46 53 58 59 61 63 68 76 83 85 89 87 79 74 74 75 75 80 86 87 88 86 85 82 77 71 68 65 61 56 50 43 40 37 37 39 35 30 32 29 28 25 23 22 20 21 21 21 22 22 21 21 21
43 47 53 58 60 62 65 69 76 84 83 94 85 80 81 78 75 79 85 89 88 85 87 87 83 78 75 70 67 64 59 54 50 45 40 38 42 38 32 36 34 33 32 31 29 28 28 27 27 28 28 29 29 29
45 50 54 58 60 62 67 71 75 78 75 83 83 81 79 79 82 83 85 87 86 85 86 87 84 82 78 74 68 66 63 58 51 50 47 46 50 41 37 38 36 35 36 35 35 34 35 34 33 31 31 33 35 35
49 52 55 59 61 64 67 71 75 77 77 85 89 83 82 83 85 84 78 82 83 83 87 89 88 87 82 77 73 70 67 62 59 55 54 57 54 47 44 42 41 40 40 40 39 39 39 38 37 37 38 40 40 40
51 51 54 59 63 67 69 71 73 77 80 86 85 84 86 82 76 73 77 84 88 91 92 92 91 88 85 82 79 74 69 66 62 62 64 62 56 53 51 50 49 48 47 47 46 45 45 46 46 46 47 48 49 48
50 51 54 59 63 66 68 71 74 78 82 85 84 83 77 73 73 78 83 89 91 89 89 92 93 93 91 88 82 78 71 65 67 68 67 66 62 59 59 57 57 57 55 54 54 53 53 53 54 54 55 55 57 58
50 51 55 58 62 64 66 69 73 77 79 81 80 77 76 79 77 77 81 85 86 88 91 94 95 95 94 89 85 80 75 74 75 73 71 70 68 66 65 64 63 61 61 61 60 60 60 60 61 62 64 65 66 67
49 51 53 57 61 65 66 67 69 73 76 78 80 79 82 80 80 82 85 86 86 89 91 94 95 94 93 91 88 84 83 83 80 77 75 74 73 72 71 72 71 70 69 69 68 68 68 68 69 70 71 72 73 74
48 51 52 55 59 63 66 68 68 71 74 75 77 80 83 82 82 83 85 89 87 87 91 93 94 93 93 93 93 91 88 86 84 82 80 78 78 77 76 76 76 75 75 75 76 76 75 75 76 77 79 79 80 80
48 51 53 54 57 61 65 68 71 73 75 77 80 83 83 82 82 82 84 88 88 89 91 90 91 94 95 96 94 93 92 91 89 87 85 84 83 82 81 81 81 80 81 80 80 81 82 82 82 83 84 85 85 87
47 49 52 55 57 60 62 67 71 73 75 77 79 82 84 85 85 86 87 87 89 90 89 89 91 93 96 97 97 96 96 96 95 93 91 89 89 87 87 86 86 86 86 86 86 87 89 89 90 91 91 93 95 95
45 48 50 52 55 58 61 64 67 71 72 75 78 80 81 83 84 87 89 89 90 91 90 92 92 89 91 95 98 101 101 99 97 95 95 95 95 95 94 93 93 92 93 94 93 94 95 97 98 99 101 103 103 103
43 47 49 51 53 56 58 61 64 67 70 73 75 78 79 81 83 84 85 87 87 86 88 89 90 91 91 91 94 97 98 100 100 100 100 100 101 101 101 101 101 101 102 102 103 104 106 107 108 108 108 108 108 108
44 46 48 49 52 54 57 60 62 64 66 68 70 72 74 76 77 79 81 81 80 79 79 81 86 89 90 91 92 93 93 94 97 99 101 102 103 105 107 107 107 107 107 108 106 107 107 107 106 107 107 107 107 106
43 46 48 49 49 51 54 55 58 61 63 64 65 66 69 71 71 73 73 71 71 72 75 77 79 82 85 88 90 91 91 91 92 96 97 98 100 100 100 101 101 102 103 105 106 105 105 107 107 107 108 108 108 108
45 46 46 46 47 49 49 50 52 54 56 58 61 63 66 67 67 68 69 68 69 70 71 71 74 77 80 83 85 87 88 90 92 94 94 94 95 96 97 98 100 100 102 103 104 105 105 105 104 104 104 105 105 105
40 40 42 43 43 44 45 47 48 50 51 53 55 58 60 62 64 66 67 68 68 68 69 71 72 74 75 76 77 78 79 81 86 89 89 90 93 96 98 98 99 100 102 102 104 104 105 105 104 103 102 101 100 98
38 40 43 44 45 45 46 47 49 51 52 53 54 55 56 58 60 62 63 64 65 67 68 69 69 71 71 72 72 71 72 75 77 78 79 81 83 85 87 90 92 92 93 94 93 92 92 91 90 89 88 87 86 86
33 35 38 40 42 45 47 49 51 52 53 53 53 53 54 55 56 56 56 57 58 59 59 60 62 63 64 66 67 68 69 70 72 74 75 75 76 76 77 79 80 81 82 82 83 82 82 81 80 79 79 79 78 78
30 32 35 38 41 43 45 47 50 51 52 52 52 53 54 54 54 55 55 55 54 55 55 57 58 59 60 61 62 63 64 65 67 68 69 70 71 72 73 74 74 75 75 76 76 76 75 74 74 73 73 72 71 70
28 30 32 34 36 39 42 45 46 48 49 50 51 52 54 54 55 55 55 56 56 55 56 57 57 59 59 60 61 62 63 64 65 65 65 66 67 67 67 67 68 68 69 69 69 68 68 67 67 67 66 65 66 66
26 27 29 31 33 35 36 39 41 43 45 46 47 49 50 52 52 52 53 54 54 54 56 56 57 58 59 59 59 59 60 60 61 60 61 62 62 62 62 62 62 63 63 63 62 62 62 61 62 62 62 62 62 63
24 26 27 28 30 31 33 34 36 38 40 42 44 46 46 47 47 48 50 51 51 51 52 53 54 54 54 55 54 54 54 54 55 56 57 58 57 56 56 56 57 58 59 58 58 58 58 58 58 57 57 57 56 54
19 22 24 26 28 30 32 34 35 36 38 39 40 42 42 44 45 46 46 47 48 49 49 50 51 52 52 52 52 52 52 52 52 53 54 54 53 53 53 53 54 54 53 53 53 53 51 50 50 50 50 50 48 46
Wind_Direction
241 237 232 220 215 213 211 208 203 203 206 211 217 223 229 218 214 218 220 215 212 212 213 216 220 218 223 227 234 245 244 247 252 260 276 306 335 355 8 14 19 27 31 36 38 39 42 46 58 110 159 171 179 182
237 230 223 216 211 210 204 202 202 204 205 209 215 221 225 221 210 215 217 212 211 210 209 212 215 216 217 222 227 233 239 242 244 249 259 278 307 337 358 8 14 19 28 36 40 46 45 46 50 68 114 159 177 186
231 225 217 212 206 203 200 200 198 202 203 207 214 217 224 218 208 211 212 210 210 208 205 208 213 214 216 219 222 229 233 240 240 241 250 261 277 306 337 354 5 14 23 30 37 43 50 52 55 59 70 114 159 179
225 219 212 207 206 199 197 196 196 199 201 206 213 217 221 217 202 205 207 207 206 203 204 207 210 212 214 216 220 227 231 240 240 237 242 251 261 278 303 333 349 1 11 21 26 34 42 49 56 61 67 74 94 145
219 216 209 205 204 201 199 198 196 197 201 207 212 214 219 207 195 202 205 206 204 202 202 207 209 211 212 215 218 225 229 235 237 236 237 244 254 263 279 299 310 333 353 7 14 23 30 35 48 53 58 67 74 78
218 211 205 202 200 202 201 199 201 202 203 207 211 212 216 206 198 202 203 202 203 201 203 206 208 208 210 214 217 222 226 231 234 236 236 239 248 254 266 276 290 303 323 338 354 5 13 21 29 34 47 58 61 65
211 211 200 199 198 199 197 196 199 200 202 205 207 210 212 210 203 201 200 205 201 197 202 205 206 207 209 214 217 220 225 228 232 234 237 238 245 250 254 266 275 284 296 309 319 331 345 354 4 13 21 26 32 41
210 202 199 191 191 197 197 195 198 201 202 204 207 208 197 192 188 197 204 204 198 198 202 205 206 208 209 214 218 219 221 225 231 232 235 238 242 249 252 262 261 272 282 289 296 304 311 319 327 334 341 348 352 356
210 201 200 190 186 196 197 195 194 198 200 202 200 204 209 203 194 193 201 200 199 200 202 206 208 209 209 214 218 219 218 221 228 233 234 237 242 245 246 251 260 262 267 276 281 289 295 299 303 308 313 316 320 321
206 202 197 191 184 190 194 195 194 197 199 202 206 202 197 193 194 196 201 199 199 200 203 206 209 211 210 214 217 220 220 221 224 232 236 239 244 243 245 253 256 260 262 265 272 277 283 287 290 293 295 298 299 301
202 196 193 187 183 187 193 195 194 197 195 201 206 205 201 202 202 203 203 199 199 199 204 207 210 213 213 215 217 221 223 222 224 230 234 240 245 242 242 253 255 261 264 267 268 270 273 277 282 286 287 289 290 289
199 191 187 185 184 187 191 194 195 197 197 201 206 209 209 208 206 204 203 198 198 200 205 208 211 214 215 216 218 222 226 225 226 231 234 239 245 243 243 250 252 255 260 265 269 272 274 277 280 282 286 288 288 289
194 190 188 185 186 189 191 192 194 196 196 199 205 204 205 207 204 201 201 199 200 201 207 209 212 215 217 217 217 220 223 227 229 233 234 237 243 246 247 250 253 256 260 264 267 270 274 276 279 283 285 285 285 287
192 189 187 186 186 188 192 193 194 196 197 200 203 204 204 205 200 200 202 201 202 205 208 211 213 217 218 220 221 223 223 226 231 234 236 239 243 246 249 251 254 256 259 263 266 269 272 275 279 284 289 289 289 289
191 188 188 188 187 189 192 194 196 197 198 200 202 204 204 199 200 203 202 203 204 207 210 214 216 217 220 222 223 225 225 227 231 235 239 241 243 246 248 251 255 258 260 262 264 268 273 276 279 283 285 288 289 290
192 189 190 190 191 192 194 195 197 198 199 201 202 203 201 204 206 206 205 206 207 210 213 216 218 220 222 224 226 227 227 228 232 235 238 242 244 247 250 253 255 258 261 264 266 268 272 275 278 281 283 286 289 291
192 191 192 192 193 195 197 198 198 199 201 202 203 202 206 206 207 207 207 210 210 211 214 217 220 222 224 226 227 229 230 231 234 235 238 242 245 247 250 253 256 259 262 264 266 269 272 275 278 280 282 284 287 289
194 193 195 196 196 198 200 201 201 201 202 203 204 204 207 207 209 208 210 210 212 214 217 218 220 223 225 226 228 230 232 235 237 238 239 241 245 248 250 253 255 258 261 265 267 270 272 274 276 278 280 282 284 286
196 197 198 199 200 201 202 203 205 205 206 206 206 208 210 210 210 212 213 213 214 217 218 220 223 225 227 229 231 232 234 236 238 239 241 243 245 247 250 254 257 259 262 264 266 268 270 272 275 277 278 280 282 284
199 200 201 202 203 204 206 207 207 208 210 210 210 211 213 213 213 216 217 217 217 219 220 223 224 226 228 230 232 233 235 237 238 241 242 244 245 248 250 254 256 258 261 263 266 268 270 272 274 276 278 280 281 282
201 202 204 205 207 208 209 210 211 212 213 214 214 215 216 218 219 220 222 222 222 222 225 226 225 226 229 232 233 235 237 239 241 243 245 246 247 248 250 253 256 258 261 263 266 268 270 272 274 277 278 280 282 284
204 206 206 207 209 210 212 213 214 215 215 216 217 218 220 221 223 225 226 227 227 226 227 228 227 228 231 233 235 237 239 241 243 245 247 249 250 252 254 256 258 260 262 264 266 268 270 272 273 274 276 278 279 281
205 207 209 209 211 212 214 215 217 218 218 219 219 221 223 224 226 228 229 231 232 232 232 231 231 232 233 234 235 238 240 242 245 247 249 251 253 255 257 258 259 262 264 266 267 268 269 270 272 273 276 278 279 280
207 209 210 211 212 214 216 217 218 220 222 223 223 224 225 226 228 230 232 233 234 235 236 236 236 234 235 236 238 241 243 245 246 246 248 250 252 254 256 258 260 261 263 265 267 267 269 271 273 274 276 277 279 280
211 213 214 213 212 213 216 218 220 222 224 225 225 226 227 228 229 230 232 234 235 236 238 239 239 238 238 238 239 239 241 242 244 247 248 249 251 254 255 257 259 260 262 264 266 268 269 271 273 274 276 278 279 281
218 217 218 218 217 215 215 216 218 221 223 225 225 226 229 230 232 233 234 235 236 237 238 239 239 241 242 243 243 244 246 246 246 247 249 251 252 253 255 256 258 259 261 263 265 267 269 271 272 273 275 276 278 280
213 213 215 217 217 215 215 217 218 219 220 222 224 226 227 229 231 233 234 235 237 239 240 242 243 244 245 246 248 248 248 249 251 252 252 253 254 256 257 258 260 261 263 264 265 267 268 270 271 272 274 276 278 279
214 215 216 217 217 218 219 220 221 222 223 223 224 226 227 229 231 232 234 236 237 238 240 242 244 245 247 247 248 249 249 249 250 252 254 254 255 255 256 257 258 259 261 263 265 267 269 271 273 274 276 277 279 280
216 217 215 214 214 215 218 221 224 225 226 227 227 228 229 231 233 233 235 236 238 238 239 241 242 243 244 246 247 248 249 251 251 251 251 253 254 255 256 257 258 260 262 263 265 267 269 271 273 275 277 278 281 283
211 213 215 218 220 219 219 221 223 224 226 228 229 231 232 233 234 236 237 238 238 239 240 241 242 244 245 246 247 249 249 250 251 251 252 253 254 255 256 258 259 261 262 264 266 269 271 272 274 276 278 279 281 283
209 211 212 214 217 219 222 225 225 226 227 228 229 230 231 232 233 234 236 237 238 239 241 242 243 243 245 247 248 249 250 251 252 253 254 255 256 257 258 259 261 262 264 266 268 269 270 272 275 277 279 282 283 284
209 208 209 211 213 217 220 223 225 227 228 229 230 231 232 233 233 234 235 236 237 238 239 241 243 244 246 247 249 250 251 251 252 253 254 255 256 258 259 260 262 264 265 267 269 271 273 275 277 279 281 282 284 287
216 215 214 215 216 216 217 218 221 223 225 227 229 231 232 234 235 236 237 238 239 240 241 241 242 244 245 246 248 249 250 251 252 253 254 257 258 260 262 263 264 266 268 270 272 274 276 278 279 281 283 285 287 288